Regional Weather Roundup
Issued by NWS

Home | Current Version | Previous Version | Text Only | Print | Product List | Glossary On
Versions: 1 2 3 4 5 6 7 8 9 10 11 12 13 14 15 16 17 18 19 20 21 22 23 24 25 26 27 28 29 30 31 32 33 34 35 36 37 38 39 40 41 42 43 44 45 46 47 48 49 50
000
ASPQ40 PGUM 280612
RWRPQ
WEATHER ROUNDUP FOR THE MARIANAS AND MICRONESIA
NATIONAL WEATHER SERVICE TIYAN GU
400 PM CHST FRI APR 28 2017

GUZ001>004-280700-
MARIANA ISLANDS-

CITY           SKY/WX    TMP DP  RH WIND       PRES   REMARKS
GUAM AIRPORT   CLOUDY    82  79  89 SE8       29.87S HX  93
ANDERSEN AFB   MOSUNNY   82  75  78 SE12      29.88S
ROTA AIRPORT   PTSUNNY   81  73  78 SE12      29.88S
TINIAN AP      PTSUNNY   84  75  74 E10       29.85S HX  92
SAIPAN AP      PTSUNNY   84  75  74 SE9       29.86F HX  92

$$

PMZ161-280700-
REPUBLIC OF PALAU-

CITY           SKY/WX    TMP DP  RH WIND       PRES   REMARKS
KOROR AP       CLOUDY    84  77  79 SW5       29.78F HX  94
KOROR WSO      CLOUDY    82  79  89 W6        29.80F HX  93

$$

PMZ171>174-280700-
FEDERATED STATES OF MICRONESIA-

CITY           SKY/WX    TMP DP  RH WIND       PRES   REMARKS
YAP AIRPORT    PTSUNNY   86  79  79 VRB6      29.81F HX  99
CHUUK AP       PTSUNNY   84  82  94 VRB6      29.79S HX 101
POHNPEI AP     NOT AVBL
POHNPEI WSO    PTSUNNY   84  75  74 NE10      29.84S HX  92
KOSRAE AP      NOT AVBL

$$

PMZ181-280700-
REPUBLIC OF THE MARSHALL ISLANDS-

CITY           SKY/WX    TMP DP  RH WIND       PRES   REMARKS
KWAJALEIN AP   MOSUNNY   86  72  62 E20       29.83S HX  92
MAJURO AP      MOCLDY    84  77  79 NE17      29.82S HX  94
MAJURO WSO     CLOUDY    84  75  74 NE15      29.81R HX  92

$$




USA.gov is the U.S. government's official web portal to all federal, state and local government web resources and services.